AO-07 1 07530U 74089B 19038.19389076 -.00000049 00000-0 -24724-4 0 9995 2 07530 101.7257 7.3021 0011841 240.8313 189.9194 12.53636486 24044 UO-11 1 14781U 84021B 19038.67554421 .00000052 00000-0 12537-4 0 9990 2 14781 97.6248 69.4922 0009310 38.5230 321.6648 14.83062053879348 LO-19 1 20442U 90005G 19037.90487301 -.00000013 00000-0 11587-4 0 9999 2 20442 098.6360 340.2255 0011794 172.6439 187.4920 14.32916582517444 HUBBLE 1 20580U 90037B 19037.95045858 .00000460 00000-0 17106-4 0 9997 2 20580 028.4706 003.0367 0002909 143.2313 276.2027 15.09169459380882 MET-2/21 1 22782U 93055A 19038.80132682 .00000001 00000-0 -12741-4 0 9995 2 22782 82.5472 266.9375 0022110 182.7562 224.9496 13.83815172284768 AO-27 1 22825U 93061C 19038.17201232 -.00000018 00000-0 10812-4 0 9993 2 22825 98.8916 23.8881 0008911 28.5023 331.6644 14.30050592323151 IO-26 1 22826U 93061D 19038.20428334 -.00000011 00000-0 13526-4 0 9990 2 22826 98.8856 23.9291 0009267 17.7334 342.4169 14.30383468323356 FO-29 1 24278U 96046B 19038.74227838 -.00000058 00000-0 -21348-4 0 9997 2 24278 98.5169 210.0417 0349745 219.5635 137.9499 13.53088901110092 NOAA-15 1 25338U 98030A 19038.61815702 .00000011 00000-0 23333-4 0 9992 2 25338 98.7575 60.0484 0009458 262.9605 97.0499 14.25894067 78562 GO-32 1 25397U 98043D 19038.40470340 -.00000009 00000-0 15192-4 0 9995 2 25397 98.6766 340.2336 0002320 71.4913 288.6518 14.23659694 69195 ISS 1 25544U 98067A 19039.06512571 .00001029 00000-0 23482-4 0 9994 2 25544 51.6419 283.3508 0005249 5.5878 138.9076 15.53241268155192 NO-44 1 26931U 01043C 19038.90021183 -.00000025 00000-0 22178-4 0 9996 2 26931 67.0529 341.1817 0005437 268.2730 91.7749 14.30531429906266 SO-50 1 27607U 02058C 19038.73982320 .00000000 00000-0 20878-4 0 9991 2 27607 64.5547 89.9569 0081773 281.3745 77.8179 14.75518109867716 CO-55 1 27844U 03031E 19037.94873669 .00000040 00000-0 37792-4 0 9990 2 27844 098.6862 048.1177 0010695 056.2063 304.0132 14.22158706809520 CO-57 1 27848U 03031J 19038.74800463 .00000020 00000-0 28812-4 0 9996 2 27848 98.6943 49.3738 0010671 64.2706 295.9572 14.21756619809530 RS-22 1 27939U 03042A 19038.86494414 .00000007 00000-0 98069-5 0 9994 2 27939 98.0186 177.3991 0014133 119.3270 240.9348 14.66751578821366 NOAA-18 1 28654U 05018A 19038.65333500 .00000032 00000-0 42444-4 0 9992 2 28654 99.1159 83.5376 0014376 182.6814 177.4282 14.12402746707022 CO-58 1 28895U 05043F 19038.11395761 .00000109 00000-0 29736-4 0 9999 2 28895 97.9370 185.5204 0017721 50.5848 309.6920 14.63628201708245 Falconsat-3 1 30776U 07006E 19037.86358674 .00002182 00000-0 63111-4 0 9992 2 30776 35.4338 211.6352 0003123 337.4020 22.6569 15.35554973660402 CO-65 1 32785U 08021C 19038.84939484 .00000178 00000-0 24895-4 0 9994 2 32785 97.5474 44.7579 0012570 343.5427 16.5380 14.88246196584225 AAUSAT2 1 32788U 08021F 19038.03251562 .00000066 00000-0 11147-4 0 9994 2 32788 97.5054 59.5380 0010340 283.2783 76.7285 14.94593144585255 DO-64 1 32789U 08021G 19038.72790230 .00000647 00000-0 47711-4 0 9992 2 32789 97.4829 92.2450 0011710 206.4206 153.6426 15.06637345587245 CO-66 1 32791U 08021J 19038.01277502 .00000187 00000-0 24426-4 0 9996 2 32791 97.5299 49.7701 0012349 321.9363 38.0983 14.90728450584490 RS-30 1 32953U 08025A 19038.61662443 .00000021 00000-0 75656-4 0 9996 2 32953 82.5002 226.2566 0019730 56.7571 303.5397 12.43087489486027 PRISM 1 33493U 09002B 19038.81692625 -.00000106 00000-0 -36823-5 0 9999 2 33493 98.1221 314.8144 0014228 259.0203 100.9439 14.96497497545583 NOAA-19 1 33591U 09005A 19038.62905672 .00000025 00000-0 38696-4 0 9996 2 33591 99.1697 26.6508 0014465 29.6406 330.5582 14.12333142515414 TISAT-1 1 36799U 10035E 19037.94968024 .00000482 00000-0 54780-4 0 9997 2 36799 098.1348 185.8981 0012971 153.3273 206.8614 14.90997392464939 JUGNU 1 37839U 11058B 19038.02803786 .00000312 00000-0 24311-4 0 9991 2 37839 19.9626 53.1944 0018743 316.3413 253.9827 14.12641174378617 SRMSAT 1 37841U 11058D 19037.51736557 .00000293 00000-0 15784-4 0 9990 2 37841 19.9720 110.3300 0011763 183.8804 299.1966 14.10624073378009 AO-71 1 37854U 11061E 19038.76842249 .00000787 00000-0 48235-4 0 9997 2 37854 101.7143 229.6411 0161700 94.5646 267.4056 15.06120676397283 HRBE 1 37855U 11061F 19038.78718992 .00001192 00000-0 67631-4 0 9999 2 37855 101.7272 227.0871 0174513 104.6965 257.3661 15.05121276397086 ALMASAT-1 1 38078U 12006B 19038.85358064 .00027401 40319-5 19451-3 0 9994 2 38078 69.4309 278.2185 0190318 106.1609 18.5123 15.53912024377107 HORYU-2 1 38340U 12025D 19038.10067268 .00000153 00000-0 30397-4 0 9994 2 38340 98.3456 72.6270 0011671 177.3672 182.7599 14.75663816361758 RS-40 1 38735U 12041C 19038.78764824 -.00000005 00000-0 -10967-3 0 9994 2 38735 82.4790 309.7147 0016249 157.7265 202.4527 12.42576971296298 BEESAT-3 1 39135U 13015F 19038.58161908 .00000887 00000-0 54259-4 0 9992 2 39135 64.8705 101.5847 0010242 271.3423 88.6529 15.17189431320351 BEESAT-2 1 39136U 13015G 19038.43823581 .00000771 00000-0 49157-4 0 9992 2 39136 64.8693 105.4773 0010186 288.2847 71.7170 15.16623071320260 ZACUBE-1 1 39417U 13066B 19038.03123843 .00000185 00000-0 29549-4 0 9992 2 39417 97.5702 58.8807 0060462 105.3477 255.4429 14.81050407281559 TRITON-1 1 39427U 13066M 19038.02321323 .00000110 00000-0 25722-4 0 9992 2 39427 97.6623 23.6520 0112808 226.6447 132.5318 14.67777286279027 GOMX-1 1 39430U 13066Q 19038.78932249 .00000223 00000-0 49781-4 0 9990 2 39430 97.7283 4.0988 0150379 307.5235 51.2380 14.59194696277511 LO-74 1 39440U 13066AA 19038.89650467 .00000158 00000-0 28879-4 0 9994 2 39440 97.5998 45.0813 0081117 149.0150 211.5883 14.75789279280689 AO-73 1 39444U 13066AE 19038.03635342 .00000236 00000-0 35272-4 0 9991 2 39444 97.5695 60.6942 0059627 99.9180 260.8772 14.81855852280435 SPROUT 1 39770U 14029E 19038.84050940 .00000479 00000-0 59315-4 0 9990 2 39770 97.8786 143.0705 0009411 148.6094 211.5679 14.87165232255383 DUCHIFAT-1 1 40021U 14033M 19038.77564691 .00000300 00000-0 36561-4 0 9992 2 40021 97.9220 322.9710 0014122 118.3610 241.9034 14.90515764252040 NANOSATCBR1 1 40024U 14033Q 19038.73412689 .00000341 00000-0 41508-4 0 9992 2 40024 97.9131 320.6695 0013347 121.3048 238.9478 14.89746539251948 EO-79 1 40025U 14033R 19037.77709085 .00000259 00000-0 33574-4 0 9997 2 40025 97.9071 317.6783 0013487 129.2173 231.0243 14.88861291251695 DTUSAT-2 1 40030U 14033W 19038.74577423 .00000204 00000-0 27944-4 0 9994 2 40030 97.9000 317.0137 0013073 121.8378 238.4113 14.88461415251776 EO-80 1 40032U 14033Y 19038.34278463 .00000214 00000-0 29098-4 0 9997 2 40032 97.9007 316.6134 0013008 123.7865 236.4592 14.88401012251706 ANTELSAT 1 40034U 14033AA 19038.42447076 .00000175 00000-0 33351-4 0 9999 2 40034 97.7797 271.0208 0059188 158.6514 201.7184 14.74040062249332 VELOX-1 1 40057U 14034E 19038.84737971 .00000289 00000-0 48077-4 0 9994 2 40057 98.2193 159.2605 0009720 296.2716 63.7498 14.77580821248441 DAURIA DX 1 1 40071U 14037C 19038.77582335 .00000101 00000-0 20517-4 0 9999 2 40071 98.4039 186.1349 0007311 290.1939 69.8494 14.81231822247874 UKUBE-1 1 40074U 14037F 19038.89158040 .00000282 00000-0 41087-4 0 9992 2 40074 98.4136 193.5589 0003618 282.8214 77.2591 14.83962480248250 HODOYOSHI-1 1 40299U 14070B 19038.86653410 .00000640 00000-0 29961-4 0 9991 2 40299 97.3598 121.2917 0013848 135.7982 359.8411 15.23201273236355 CHUBUSAT-1 1 40300U 14070C 19038.83544285 .00000645 00000-0 31240-4 0 9998 2 40300 97.3422 116.2566 0020447 151.9722 345.7679 15.21900636236114 QSAT-EOS 1 40301U 14070D 19038.80058774 .00001799 00000-0 73182-4 0 9991 2 40301 97.3396 118.5702 0026954 138.0262 338.6728 15.25494942236338 FIREBIRD FU3 1 40377U 15003B 19038.09289411 .00001293 00000-0 55468-4 0 9992 2 40377 99.0979 351.5937 0128858 168.3488 192.0773 15.18184692221952 FIREBIRD FU4 1 40378U 15003C 19038.80556241 .00001312 00000-0 56157-4 0 9998 2 40378 99.0983 352.5195 0129098 165.8621 194.6278 15.18193291222069 GRIFEX 1 40379U 15003D 19038.84735347 .00000952 00000-0 45145-4 0 9993 2 40379 99.0971 347.4352 0136388 182.0141 178.0555 15.15047491221771 NO-84 1 40654U 15025D 19038.32876103 .00010391 00000-0 15572-3 0 05277 2 40654 054.9916 050.9377 0144892 350.7507 009.0719 15.44479093092138 NO-83 1 40655U 15025E 19038.29765144 .00038855 00000-0 28176-3 0 06300 2 40655 054.9722 321.6980 0081465 044.9782 315.7819 15.68590856093030 DEORBITSAIL 1 40719U 15032E 19038.74310272 .00000349 00000-0 57081-4 0 9990 2 40719 97.9235 293.1174 0016880 13.0261 347.1381 14.76632433192931 NUDT-PHONESAT 1 40900U 15049B 19038.72208588 .00002129 00000-0 95524-4 0 9996 2 40900 97.4390 49.3764 0011549 288.7349 160.1223 15.22239836187733 XW-2A 1 40903U 15049E 19038.78900289 .00001694 00000-0 42622-4 0 9999 2 40903 97.3564 80.7139 0011967 259.3218 190.6031 15.41337537190081 XW-2C 1 40906U 15049H 19038.88091618 .00000794 00000-0 45353-4 0 9994 2 40906 97.4647 43.1614 0013416 297.0709 180.0608 15.15498862187183 XW-2D 1 40907U 15049J 19038.73628271 .00000885 00000-0 49953-4 0 9991 2 40907 97.4626 42.6975 0012757 295.2265 150.3023 15.15673135187177 LILACSAT-2 1 40908U 15049K 19038.84708427 .00000123 00000-0 10436-4 0 9995 2 40908 97.4746 41.8502 0014575 298.7272 181.7951 15.13694560187018 XW-2E 1 40909U 15049L 19038.69741762 .00000919 00000-0 49156-4 0 9992 2 40909 97.4584 45.1662 0012181 291.4805 158.6744 15.17498068187322 XW-2F 1 40910U 15049M 19038.75201108 .00001054 00000-0 56631-4 0 9993 2 40910 97.4602 44.4556 0013279 287.7448 158.8437 15.17015018187162 XW-2B 1 40911U 15049N 19038.76931804 .00000491 00000-0 29293-4 0 9996 2 40911 97.4649 43.3459 0012740 295.5433 183.6925 15.15605616187072 DCBB 1 40912U 15049P 19038.71748400 .00001091 00000-0 54885-4 0 9992 2 40912 97.4501 47.7909 0013494 270.6185 178.6996 15.19290738187423 TW-1C 1 40926U 15051B 19038.90066264 .00008832 00000-0 14326-3 0 9997 2 40926 97.1562 85.3659 0009996 126.9729 358.3319 15.52932011189849 TW-1A 1 40928U 15051D 19038.85973469 .00002858 00000-0 73679-4 0 9996 2 40928 97.1609 73.0154 0011098 179.2056 302.9900 15.39946032189032 IO-86 1 40931U 15052B 19038.58493500 .00000666 00000-0 37482-5 0 9992 2 40931 5.9969 271.4977 0013123 97.9669 262.2052 14.76597009181850 LQSat 1 40958U 15057A 19038.87345126 .00000005 00000-0 84414-5 0 9992 2 40958 97.9152 111.5048 0017124 304.2591 55.6978 14.73065920179543 AO-85 1 40967U 15058D 19038.47750005 .00000208 00000-0 39309-4 0 05909 2 40967 064.7741 196.8388 0211383 243.0309 114.9070 14.75868137088377 ATHENOXAT-1 1 41168U 15077C 19038.63435348 .00001972 00000-0 70050-4 0 9992 2 41168 14.9877 96.3489 0011538 71.5053 357.3815 15.13315550174098 ChubuSat-2 1 41338U 16012B 19038.01061186 .00000290 00000-0 15814-4 0 9997 2 41338 31.0025 261.5838 0014010 239.2793 120.6462 15.00090934163121 ChubuSat-3 1 41339U 16012C 19038.72753462 .00000317 00000-0 17891-4 0 9998 2 41339 31.0103 255.2991 0013870 253.8554 106.0566 15.00271128163229 Horyu-4 1 41340U 16012D 19038.78474278 .00000418 00000-0 25105-4 0 9990 2 41340 31.0041 247.5693 0014283 269.9528 89.9471 15.01165285163325 OUFTI-1 1 41458U 16025C 19038.86155085 .00001183 00000-0 64031-4 0 9996 2 41458 98.1118 119.0684 0169563 76.9462 285.0599 15.05395897152890 e-st@r-II 1 41459U 16025D 19038.78189351 .00000706 00000-0 40265-4 0 9994 2 41459 98.1102 118.7197 0170562 78.1585 283.8704 15.05062879152851 AAUSAT4 1 41460U 16025E 19038.78032998 .00001438 00000-0 76213-4 0 9995 2 41460 98.1053 119.6544 0160627 72.2045 289.6609 15.06779589152954 LO-87 1 41557U 16033B 19038.85592096 .00001182 00000-0 47485-4 0 9994 2 41557 97.4239 127.1308 0015065 45.3652 314.8812 15.26857025150129 NuSat2 1 41558U 16033C 19038.85656294 .00001232 00000-0 46688-4 0 9996 2 41558 97.4260 127.7593 0014170 47.7296 312.5143 15.28750983150143 Lapan A3 1 41603U 16040E 19038.81382262 .00000245 00000-0 14625-4 0 9991 2 41603 97.3807 100.6199 0014410 130.9062 332.3604 15.19664519145869 Swayam 1 41607U 16040J 19038.40109736 .00001389 00000-0 62076-4 0 9996 2 41607 97.3838 102.8048 0014933 129.0570 231.1998 15.22899022145895 Pratham 1 41783U 16059A 19038.14562854 .00000052 00000-0 19285-4 0 9996 2 41783 98.0868 100.5090 0034836 78.2996 282.2112 14.62971391126318 AlSat 1N 1 41789U 16059G 19038.72452003 .00000091 00000-0 26242-4 0 9994 2 41789 98.0887 102.7900 0029656 67.0908 293.3422 14.64214731126487 ScatSat 1 41790U 16059H 19038.20591750 .00000009 00000-0 13293-4 0 9993 2 41790 98.2288 86.3218 0019537 90.2830 270.0604 14.50889076125268 TY-1 1 41844U 16066D 19038.91296383 .00001605 00000-0 69207-4 0 9992 2 41844 97.4054 47.8479 0013842 292.3367 132.4841 15.23932484124776 Pegasus-1 1 41846U 16066F 19037.77057194 .00000190 00000-0 40533-4 0 9991 2 41846 098.7297 075.7517 0366711 270.4213 085.4971 14.37488699117600 CAS-2T 1 41847U 16066G 19038.72416211 .00000014 00000-0 13622-4 0 9991 2 41847 98.7246 77.2385 0364954 264.4618 91.4849 14.37956290118175 EO-88 1 42017U 17008BX 19038.75578337 .00001320 00000-0 55590-4 0 9990 2 42017 97.4198 107.1229 0004652 270.3958 89.6746 15.25122010109961 HAVELSAT 1 42700U 98067LH 19038.67983407 .00275706 44128-4 46015-3 0 9997 2 42700 51.6189 212.0926 0002943 271.7918 88.2756 16.02407675 99282 SOMP2 1 42701U 98067LJ 19038.70739899 .00118873 16649-4 31807-3 0 9997 2 42701 51.6294 217.7466 0001167 263.4731 96.6144 15.94302484 99207 PHOENIX 1 42706U 98067LP 19038.72884397 .00048233 00000-0 21533-3 0 9995 2 42706 51.6255 224.7185 0000646 283.5179 76.5752 15.83742178 99034 qbee 1 42708U 98067LR 19038.83569204 .00265144 41834-4 43068-3 0 9999 2 42708 51.6188 212.4094 0004031 280.2004 79.8552 16.02864527 99159 ZA-AeroSat 1 42713U 98067LU 19038.79233785 .00047300 00000-0 22923-3 0 9997 2 42713 51.6316 229.7244 0000851 320.3891 39.7049 15.81997741 98631 SpaceCube 1 42717U 98067LY 19038.71007869 .00235595 34933-4 41047-3 0 9994 2 42717 51.6138 213.7033 0003111 275.5467 84.5189 16.01711526 98202 NJUST-1 1 42722U 98067MB 19038.79500729 .00036760 00000-0 20596-3 0 9994 2 42722 51.6367 234.1289 0002996 65.3334 25.1512 15.78936459 97645 LO-90 1 42725U 98067ME 19038.91778123 .00108754 15553-4 33716-3 0 9990 2 42725 51.6306 221.1515 0000340 192.0602 314.5955 15.91550407 97732 nSIGHT1 1 42726U 98067MF 19038.86800421 .00013784 00000-0 13569-3 0 9991 2 42726 51.6365 255.3272 0004732 45.8713 314.2671 15.66296019 97284 SNUSAT 1B 1 42727U 98067MG 19038.74555928 .00095812 14523-4 31147-3 0 9991 2 42727 51.6265 222.4580 0001688 328.7798 31.3108 15.90706954 97669 QBITO 1 42728U 98067MH 19038.71850646 .00523081 15199-3 52638-3 0 9995 2 42728 51.6215 211.7344 0005604 291.9000 68.1418 16.10393932 97644 SUSat 1 42730U 98067MK 19038.75066259 .00121582 16801-4 34292-3 0 9999 2 42730 51.6275 219.5312 0001507 260.3132 99.7705 15.93296494 97541 Aoxiang-1 1 42735U 98067MQ 19038.73193513 .00041933 00000-0 22219-3 0 9993 2 42735 51.6318 232.8741 0003119 75.0033 9.8649 15.80106096 98780 BeEagleSat 1 42736U 98067MR 19038.83405092 .00059892 00000-0 23881-3 0 9992 2 42736 51.6279 225.3919 0001705 60.4051 299.7122 15.86014058 97583 CAS-4B 1 42759U 17034B 19038.85400943 .00000276 00000-0 30437-4 0 9992 2 42759 43.0175 229.3223 0009943 152.3140 299.9353 15.09481120 91060 CAS-4A 1 42761U 17034D 19038.75247910 .00000064 00000-0 17441-4 0 9992 2 42761 43.0179 229.4964 0010047 151.4730 272.6998 15.09555788 91045 UCLSat 1 42765U 17036A 19038.42488778 .00001121 00000-0 51478-4 0 9994 2 42765 97.3703 99.1338 0010845 339.0734 21.0057 15.22409153 90494 NIUSat 1 42766U 17036B 19038.38559366 .00000863 00000-0 42138-4 0 9997 2 42766 97.3702 97.8369 0014749 325.7759 34.2525 15.20840273 90271 LituanicaSAT 2 1 42768U 17036D 19037.80725900 .00001745 00000-0 78707-4 0 9995 2 42768 97.3729 98.0851 0014271 328.7363 31.3024 15.22253966 90243 Aalto 1 1 42775U 17036L 19038.30234794 .00000739 00000-0 36264-4 0 9999 2 42775 97.3692 98.0517 0013085 326.9757 33.0660 15.21112452 90235 URSA MAIOR 1 42776U 17036M 19038.47113469 .00000782 00000-0 38057-4 0 9993 2 42776 97.3699 98.3246 0012869 326.3994 33.6425 15.21229463 90260 Max Valier Sat 1 42778U 17036P 19038.35668513 .00000823 00000-0 39303-4 0 9998 2 42778 97.3733 98.8045 0011508 332.1116 27.9502 15.21753442 90264 Pegasus 1 42784U 17036V 19038.16543851 .00000973 00000-0 45343-4 0 9998 2 42784 97.3706 98.7418 0011425 339.9305 20.1481 15.22180119 90253 NUDATSat 1 42787U 17036Y 19038.76529879 .00001322 00000-0 59132-4 0 9991 2 42787 97.3736 99.8076 0012186 337.4270 22.6438 15.22988898 90215 SUCHAI 1 1 42788U 17036Z 19038.40297850 .00001221 00000-0 55561-4 0 9994 2 42788 97.3709 99.1905 0010971 338.7978 21.2802 15.22538741 90374 SKCUBE 1 42789U 17036AA 19037.75396406 .00001154 00000-0 52828-4 0 9997 2 42789 097.3707 098.5203 0010883 341.3605 018.7232 15.22461482090191 VZLUSAT 1 1 42790U 17036AB 19037.83265032 .00001564 00000-0 69404-4 0 9991 2 42790 097.3718 098.8965 0010447 340.7812 019.3029 15.23000113090228 VENTA 1 1 42791U 17036AC 19037.86136321 .00001117 00000-0 51186-4 0 9995 2 42791 097.3706 098.6754 0010555 341.8364 018.2494 15.22487075090201 Robusta 1B 1 42792U 17036AD 19037.89608365 .00001137 00000-0 51836-4 0 9995 2 42792 097.3707 098.7744 0010477 341.9597 018.1266 15.22622068090237 D-SAT 1 42794U 17036AF 19038.14114915 .00000345 00000-0 35611-4 0 9992 2 42794 97.5597 88.4950 0125847 219.4915 139.7082 14.91015341 88737 BIRD-J 1 42820U 98067MU 19038.00488768 .00066612 00000-0 28660-3 0 9994 2 42820 51.6284 234.1600 0000895 268.7116 91.3784 15.84388664 90850 BIRD-G 1 42821U 98067MV 19038.78653203 .00047998 00000-0 23057-3 0 9999 2 42821 51.6249 232.6210 0000942 290.5601 69.5300 15.82180876 90929 BIRD-M 1 42822U 98067MW 19037.99033086 .00059147 00000-0 26853-3 0 9999 2 42822 51.6302 235.6019 0000607 305.1987 54.8959 15.83300773 90814 BIRD-B 1 42823U 98067MX 19038.77032041 .00055824 00000-0 24583-3 0 9993 2 42823 51.6276 231.0510 0001668 345.2298 14.8656 15.83969411 90943 BIRD-N 1 42824U 98067MY 19037.90764531 .00060268 00000-0 27663-3 0 9994 2 42824 51.6305 236.6116 0001746 6.9125 353.1901 15.83059709 90781 TechnoSat 1 42829U 17042E 19038.74128315 .00000160 00000-0 21560-4 0 9996 2 42829 97.5791 296.9476 0015302 131.8839 228.3688 14.90920669 85424 TOMSK-TPU 120 1 42910U 98067MZ 19038.83695546 .00023576 00000-0 16970-3 0 9992 2 42910 51.6341 245.6489 0003903 40.9750 53.1019 15.73462284 84368 TANYUSHA 1 1 42911U 98067NA 19038.70861571 .00036209 00000-0 22017-3 0 9998 2 42911 51.6284 241.8910 0003017 31.0938 13.2140 15.77107293 84381 TANYUSHA 2 1 42912U 98067NB 19038.80096463 .00030972 00000-0 20361-3 0 9991 2 42912 51.6351 244.0088 0002832 44.6460 41.3579 15.75408235 84388 TNS 0-2 1 42914U 98067ND 19038.82212058 .00025146 00000-0 18011-3 0 9991 2 42914 51.6311 246.5792 0002965 34.4480 325.6711 15.73539028 84346 QIKCOM-1 1 42983U 98067NF 19038.81984736 .00002904 00000-0 44825-4 0 9995 2 42983 51.6392 276.7882 0003879 6.1977 353.9062 15.57856531 72936 AO-91 1 43017U 17073E 19038.36806113 .00000356 00000-0 33818-4 0 9993 2 43017 97.7215 324.8915 0257659 225.7979 132.1810 14.78384264 65852 EcAMSat 1 43019U 98067NG 19038.89798007 .00004893 00000-0 66592-4 0 9992 2 43019 51.6394 273.5898 0004227 341.1101 18.9734 15.59593384155303 PICSAT 1 43132U 18004X 19038.72726670 .00001143 00000-0 51332-4 0 9991 2 43132 97.5051 106.7214 0009748 3.7394 356.3913 15.23213911 59560 AO-92 1 43137U 18004AC 19038.71282424 .00000880 00000-0 40233-4 0 9994 2 43137 97.5044 106.7195 0009368 6.1208 354.0142 15.23181223 59552 TianYi 2 1 43155U 18008A 19038.89519006 .00000910 00000-0 58241-4 0 9998 2 43155 97.5015 114.1137 0019335 57.2907 62.5446 15.10923950 58078 Zhou Enlai 1 43156U 18008B 19038.83080163 .00000806 00000-0 52790-4 0 9997 2 43156 97.5062 113.9689 0016422 55.3890 54.8581 15.10413615 58047 TianYi 6 1 43158U 18008D 19038.77789444 .00000239 00000-0 18522-4 0 9995 2 43158 97.5018 113.5439 0015234 53.0733 67.0004 15.10047636 58008 S-Net G 1 43186U 18014G 19038.78207301 -.00000127 00000-0 -60929-5 0 9998 2 43186 97.7177 309.0842 0012654 83.7788 276.4875 14.96580078 55554 S-Net H 1 43187U 18014H 19038.78190014 -.00000114 00000-0 -49508-5 0 9997 2 43187 97.7175 309.0756 0012665 83.7292 276.5372 14.96580076 55550 S-Net J 1 43188U 18014J 19038.78169727 -.00000113 00000-0 -48221-5 0 9995 2 43188 97.7178 309.0878 0012660 83.8248 276.4416 14.96580912 55553 S-Net K 1 43189U 18014K 19038.78198635 -.00000124 00000-0 -57629-5 0 9990 2 43189 97.7175 309.0739 0012644 83.7646 276.5015 14.96579690 54107 FMN 1 1 43192U 18015A 19038.47437653 .00002200 00000-0 94198-4 0 9993 2 43192 97.3804 168.1032 0017751 39.9051 320.3489 15.23721251 56336 Shaonian Xing 1 43199U 18015H 19038.40414841 .00001645 00000-0 69799-4 0 9998 2 43199 97.3593 167.4228 0018859 51.2405 309.0515 15.24370726 56362 1KUNS-PF 1 43466U 98067NP 19038.84567822 .00012875 00000-0 15348-3 0 9993 2 43466 51.6376 276.2132 0000510 128.8009 231.3030 15.61456307 42444 UBAKUSAT 1 43467U 98067NQ 19038.83755706 .00008367 00000-0 10863-3 0 9991 2 43467 51.6375 277.6550 0001671 287.7948 72.2863 15.59760865 42438 Irazu 1 43468U 98067NR 19038.10733270 .00016698 00000-0 18767-3 0 9991 2 43468 51.6375 278.7783 0000749 141.4197 218.6851 15.62739928142339 EnduroSat One 1 43551U 98067NZ 19038.12851960 .00011048 00000-0 14470-3 0 9994 2 43551 51.6381 283.4107 0005703 20.5929 339.5293 15.59132825 32528 EQUISat 1 43552U 98067PA 19038.73939743 .00009319 00000-0 12571-3 0 9996 2 43552 51.6391 280.7446 0006084 21.2332 338.8912 15.58564449 32570 UiTMSat 1 1 43589U 98067PD 19038.86484004 .00009848 00000-0 13362-3 0 9991 2 43589 51.6366 280.8192 0005508 31.9905 328.1421 15.58332389 28326 Maya 1 1 43590U 98067PE 19037.89984412 .00011675 00000-0 15712-3 0 9995 2 43590 51.6371 285.6246 0005552 29.5554 330.5751 15.58337906 28108 Bhutan 1 1 43591U 98067PF 19037.95912385 .00010737 00000-0 14478-3 0 9999 2 43591 051.6380 285.2744 0005704 030.3611 329.7711 15.58387735028113 SiriusSat 1 1 43595U 98067PG 19038.20807772 .00009828 00000-0 13598-3 0 9996 2 43595 51.6374 284.6812 0002799 343.6062 16.4839 15.57814056 27323 SiriusSat 2 1 43596U 98067PH 19038.86645177 .00009316 00000-0 12994-3 0 9999 2 43596 51.6385 281.5964 0003470 346.6142 13.4757 15.57668477 27420 Tanusha-3 1 43597U 98067PJ 19038.82803829 .00010458 00000-0 14129-3 0 9997 2 43597 51.6367 281.3031 0002981 5.5441 354.5583 15.58375582 27422 SurfSat 1 43614U 18070B 19038.75097777 .00002365 00000-0 65427-4 0 9998 2 43614 93.0393 309.5671 0019371 90.6612 269.6861 15.36908331 22295 CP-7 DAVE 1 43615U 18070C 19038.29597833 .00002283 00000-0 63247-4 0 9993 2 43615 93.0396 309.3793 0019392 92.0277 268.3197 15.36870554 22224 ELFIN-B 1 43616U 18070D 19038.73495611 .00003228 00000-0 88334-4 0 9998 2 43616 93.0353 309.5054 0020375 93.3441 267.0144 15.37201801 22299 ELFIN-A 1 43617U 18070E 19038.73176015 .00003168 00000-0 86639-4 0 9992 2 43617 93.0411 309.6172 0019417 90.3498 269.9980 15.37235904 22291 STARS-Me Mother 1 43640U 98067PQ 19038.14012919 .00006592 00000-0 98771-4 0 9993 2 43640 51.6386 286.4847 0004941 329.2043 30.8658 15.56286154 19225 CubeBel 1 1 43666U 18083E 19038.78946667 .00001226 00000-0 64871-4 0 9990 2 43666 97.5315 64.0959 0013605 284.7453 161.9018 15.17291516 15435 Changshagaoxin 1 43669U 18083H 19038.88798740 .00000813 00000-0 45102-4 0 9998 2 43669 97.5178 63.8942 0009471 275.3201 84.6951 15.16556456 15407 Ten-Koh 1 43677U 18084G 19038.01067776 .00000556 00000-0 63213-4 0 9998 2 43677 97.8392 152.7206 0016153 2.5526 357.5754 14.90123370 15008 Diwata-2 1 43678U 18084H 19038.78780301 -.00000323 00000-0 -26583-4 0 9992 2 43678 97.8383 153.7227 0010878 23.9077 336.2651 14.91520805 15138 IRVINE 01 1 43693U 18088D 19038.76528826 .00002445 00000-0 10885-3 0 9995 2 43693 85.0339 44.5309 0017077 320.0077 39.9906 15.20783390 13469 QO-100 1 43700U 18090A 19038.73515937 .00000141 00000-0 00000 0 0 9998 2 43700 0.0252 114.0469 0001003 221.9198 92.0492 1.00270696 980 Reaktor Hello World 1 43743U 18096AA 19038.79967083 .00001214 00000-0 49465-4 0 9995 2 43743 97.4773 108.8621 0020174 78.2216 60.7561 15.26279812 10768 MinXSS-2 1 43758U 18099A 19038.19802185 .00000383 00000-0 39972-4 0 9997 2 43758 97.7596 111.7215 0016618 50.3140 309.9543 14.95298661 9783 OBJECT B 1 43759U 18099B 19038.87704899 .00000529 00000-0 53483-4 0 9991 2 43759 97.7599 112.3768 0015206 42.0448 318.1936 14.95065760 9878 OBJECT D 1 43761U 18099D 19038.14497141 .00000488 00000-0 49919-4 0 9996 2 43761 97.7624 111.6624 0015556 50.1515 310.1072 14.94968657 9763 OBJECT F 1 43763U 18099F 19038.79157463 -.00000352 00000-0 -26485-4 0 9994 2 43763 97.7594 112.3216 0014775 46.9385 313.3069 14.95483569 9874 AO-95 1 43770U 18099N 19038.15832936 .00000406 00000-0 42700-4 0 9993 2 43770 97.7603 111.6225 0015856 56.2686 304.0043 14.94673801 9771 OBJECT P 1 43771U 18099P 19038.15799656 .00000440 00000-0 45813-4 0 9991 2 43771 97.7603 111.6223 0015870 56.3451 303.9281 14.94682898 9764 RANGE-B 1 43772U 18099Q 19038.15537325 .00000624 00000-0 62675-4 0 9994 2 43772 97.7652 111.6669 0015171 44.7828 315.4615 14.94748785 9763 RANGE-A 1 43773U 18099R 19038.15540105 .00000402 00000-0 42306-4 0 9998 2 43773 97.7551 111.5873 0014593 45.0093 315.2307 14.94735098 9762 OBJECT T 1 43775U 18099T 19038.14967039 .00000512 00000-0 52241-4 0 9999 2 43775 97.7612 111.6466 0015752 48.5097 311.7473 14.94864577 9750 OBJECT U 1 43776U 18099U 19038.14962670 .00000474 00000-0 48706-4 0 9994 2 43776 97.7610 111.6461 0015793 48.4476 311.8096 14.94862556 9756 OBJECT V 1 43777U 18099V 19038.16464423 .00000329 00000-0 35765-4 0 9990 2 43777 97.7559 111.5827 0016740 50.0574 310.2114 14.94428450 9761 OBJECT W 1 43778U 18099W 19038.15391479 .00000534 00000-0 54372-4 0 9993 2 43778 97.7511 111.5518 0015253 53.4934 306.7688 14.94774632 9348 OBJECT X 1 43779U 18099X 19038.14964354 .00000490 00000-0 50161-4 0 9994 2 43779 97.7611 111.6463 0015780 48.5509 311.7064 14.94863482 9759 MOVE-II 1 43780U 18099Y 19038.75092658 .00000789 00000-0 77528-4 0 9999 2 43780 97.7586 112.2143 0014687 53.5205 306.7367 14.94911020 9840 SNUSat 2 1 43782U 18099AA 19038.74788131 .00000655 00000-0 65115-4 0 9999 2 43782 97.7598 112.2322 0013738 43.5957 316.6347 14.94967113 9856 SnugLite 1 43784U 18099AC 19038.20917597 .00000617 00000-0 61540-4 0 9998 2 43784 97.7563 111.6750 0016227 52.1928 308.0759 14.95039357 9783 ITASat 1 1 43786U 18099AE 19038.27527508 .00000586 00000-0 58664-4 0 9994 2 43786 97.7615 111.7905 0016292 50.8885 309.3781 14.95057053 9798 OBJECT AH 1 43789U 18099AH 19038.19197063 .00000206 00000-0 23865-4 0 9991 2 43789 97.7592 111.7225 0016803 49.4198 310.8482 14.95437817 9479 EAGLET 1 1 43790U 18099AJ 19038.19142662 -.00000017 00000-0 37116-5 0 9994 2 43790 97.7605 111.7381 0014557 55.8943 304.3657 14.95438098 9476 ESEO 1 43792U 18099AL 19038.19005566 -.00000107 00000-0 -44366-5 0 9993 2 43792 97.7588 111.7275 0014391 53.1799 307.0739 14.95464420 9532 CSIM 1 43793U 18099AM 19038.18792937 .00000177 00000-0 21155-4 0 9993 2 43793 97.7539 111.6761 0013921 52.0308 308.2168 14.95539588 9504 Astrocast 0.1 1 43798U 18099AS 19038.18106022 -.00000261 00000-0 -18218-4 0 9994 2 43798 97.7594 111.7396 0013272 37.9884 322.2271 14.95678425 9768 OBJECT AV 1 43801U 18099AV 19038.87326022 .00000541 00000-0 54489-4 0 9998 2 43801 97.7556 112.3353 0015103 42.8673 317.3722 14.95157199 9875 JO-97 1 43803U 18099AX 19038.40448283 .00000566 00000-0 56730-4 0 9991 2 43803 97.7572 111.8886 0016235 51.2640 309.0029 14.95167727 9804 Suomi 100 1 43804U 18099AY 19038.87266200 .00000572 00000-0 57293-4 0 9992 2 43804 97.7570 112.3515 0016290 49.8990 310.3656 14.95172860 9883 Al Farabi 2 1 43805U 18099AZ 19038.87175501 .00000655 00000-0 64778-4 0 9994 2 43805 97.7571 112.3529 0016306 50.0796 310.1855 14.95201232 9881 OBJECT BA 1 43806U 18099BA 19038.87164450 .00000445 00000-0 45733-4 0 9993 2 43806 97.7571 112.3506 0015991 48.2524 312.0061 14.95190343 9570 OBJECT BD 1 43809U 18099BD 19038.86581124 .00000274 00000-0 30085-4 0 9990 2 43809 97.7586 112.3772 0016279 50.9537 309.3129 14.95322539 9576 OBJECT BE 1 43810U 18099BE 19038.86571193 .00000232 00000-0 26260-4 0 9991 2 43810 97.7498 112.3043 0015435 46.2768 313.9728 14.95321124 9427 PWSat 2 1 43814U 18099BJ 19038.13671183 .00012114 00000-0 10889-2 0 9995 2 43814 97.7674 111.6605 0005117 83.1644 277.0121 14.95809904 9167 OBJECT BQ 1 43820U 18099BQ 19038.79935334 .00000266 00000-0 29385-4 0 9993 2 43820 97.7544 112.2777 0013497 42.6320 317.5946 14.95309721 9266 OBJECT BS 1 43822U 18099BS 19038.13190718 .00000277 00000-0 30580-4 0 9993 2 43822 97.7596 111.6482 0016345 47.0603 313.1985 14.94974874 3365 CHOMPTT 1 43855U 18104G 19037.69912674 .00000043 00000-0 00000 0 0 9999 2 43855 85.0393 143.6863 0020126 82.5215 277.8371 15.22128252 7945 ISAT 1 43879U 18111D 19038.42208413 .00000758 00000-0 72854-4 0 9998 2 43879 97.7261 308.2745 0014773 101.6751 258.6129 14.95883805 4320 UWE-4 1 43880U 18111E 19038.81644652 .00000580 00000-0 56647-4 0 9997 2 43880 97.7267 308.6852 0013842 101.6109 258.6667 14.96127779 4389 Sparrow 1 43881U 18111F 19038.41394853 .00000505 00000-0 49883-4 0 9990 2 43881 97.7271 308.2924 0013919 101.7322 258.5462 14.96170861 4320 Lume 1 1 43908U 18111AJ 19038.89207942 .00001008 00000-0 44157-4 0 9992 2 43908 97.2991 307.6589 0023583 92.5916 267.8022 15.24035952 6520 FO-98 1 43933U 19003B 19038.81891170 .00000749 00000-0 36260-4 0 9992 2 43933 97.3006 100.4814 0017586 180.0975 317.6204 15.21426798 3151 FO-99 1 43937U 19003F 19038.90985147 .00001198 00000-0 53130-4 0 9998 2 43937 97.2965 100.6078 0024842 169.3517 240.3788 15.23230542 3170 Delphini 1 1 44030U 98067PW 19037.94309058 .00007709 00000-0 12465-3 0 9993 2 44030 051.6390 288.9176 0004626 027.0110 333.1120 15.53883447001043 /EX